Weather History for Lewisburg, WV

Change the Weather History Date:

Thursday, January 17, 2013

  Actual Average Record
Temperature  
Mean Temperature 30 °F 28 °F  
Max Temperature 33 °F 38 °F 59 °F (2012)
Min Temperature 28 °F 18 °F -16 °F (1982)
Degree Days  
Heating Degree Days 34    
Month to date heating degree days  
Cooling Degree Days 0    
Month to date cooling degree days  
Year to date cooling degree days  
Moisture  
Dew Point 25 °F    
Average Humidity 81    
Maximum Humidity 100    
Minimum Humidity 60    
Precipitation  
Precipitation 0.14 in 0.11 in 1.00 in (1971)
Month to date precipitation 1.74  
Year to date precipitation 1.74  
Snow  
Snow 0.00 in - - ()
Month to date snowfall  
Snow Depth -    
Sea Level Pressure  
Sea Level Pressure 30.05 in    
Wind  
Wind Speed 3 mph (West)    
Max Wind Speed 7 mph    
Max Gust Speed -    
Visibility 9 miles    
Events Rain , Snow    
T = Trace of Precipitation, MM = Missing Value Source: NWS Daily Summary

Daily Weather History Graph

Daily Weather History Graph

Search for Another Location

Airport:

Trip Planner

Search our weather history database for the weather conditions in past years. The results will help you decide how hot, cold, wet, or windy it might be!

Date:

Astronomy

Jan. 17, 2013 Rise Set
Actual Time 7:35 AM EST 5:28 PM EST
Civil Twilight 7:06 AM EST 5:57 PM EST
Nautical Twilight 6:34 AM EST 6:29 PM EST
Astronomical Twilight 6:02 AM EST 7:01 PM EST
Moon 10:48 AM EST (1/17) No Moon Set
Length of Visible Light 10h 50m
Length of Day
9h 53m
Waxing Crescent, 37% of the Moon is Illuminated
Jan 17
Waxing Crescent
Jan 18
First Quarter
Jan 26
Full
Feb 3
Last Quarter
Feb 10
New

Hourly Weather History & Observations

Time (EST) Temp. Windchill Dew Point Humidity Pressure Visibility Wind Dir Wind Speed Gust Speed Precip Events Conditions
12:15 AM 33.8 °F 29.6 °F 32.0 °F 93% 30.02 in 7.0 mi WSW 4.6 mph - N/A   Overcast
12:35 AM 33.8 °F 30.8 °F 32.0 °F 93% 30.02 in 7.0 mi West 3.5 mph - N/A   Overcast
12:55 AM 33.8 °F 27.7 °F 32.0 °F 93% 30.03 in 10.0 mi WSW 6.9 mph - N/A   Overcast
1:15 AM 33.8 °F 27.7 °F 32.0 °F 93% 30.04 in 10.0 mi West 6.9 mph - N/A   Overcast
1:55 AM 33.8 °F 30.8 °F 32.0 °F 93% 30.03 in 10.0 mi West 3.5 mph - N/A   Overcast
2:15 AM 33.8 °F 27.7 °F 32.0 °F 93% 30.03 in 10.0 mi West 6.9 mph - N/A   Overcast
2:35 AM 33.8 °F 30.8 °F 30.2 °F 87% 30.04 in 10.0 mi WNW 3.5 mph - N/A   Overcast
2:55 AM 33.8 °F 28.6 °F 26.6 °F 75% 30.05 in 10.0 mi WNW 5.8 mph - N/A   Overcast
3:15 AM 32.0 °F 26.4 °F 26.6 °F 80% 30.06 in 10.0 mi West 5.8 mph - N/A   Overcast
3:35 AM 32.0 °F 28.7 °F 23.0 °F 69% 30.06 in 10.0 mi NW 3.5 mph - N/A   Overcast
3:55 AM 32.0 °F 28.7 °F 23.0 °F 69% 30.05 in 10.0 mi WNW 3.5 mph - N/A   Overcast
4:15 AM 32.0 °F 28.7 °F 23.0 °F 69% 30.06 in 10.0 mi West 3.5 mph - N/A   Overcast
4:35 AM 32.0 °F 27.5 °F 23.0 °F 69% 30.06 in 10.0 mi West 4.6 mph - N/A   Mostly Cloudy
4:55 AM 32.0 °F 28.7 °F 21.2 °F 64% 30.04 in 10.0 mi WSW 3.5 mph - N/A   Mostly Cloudy
5:15 AM 32.0 °F 27.5 °F 21.2 °F 64% 30.03 in 10.0 mi WNW 4.6 mph - N/A   Overcast
5:35 AM 32.0 °F - 19.4 °F 60% 30.04 in 10.0 mi Calm Calm - N/A   Overcast
5:55 AM 32.0 °F - 19.4 °F 60% 30.02 in 10.0 mi Calm Calm - N/A   Mostly Cloudy
6:15 AM 32.0 °F 26.4 °F 21.2 °F 64% 30.04 in 10.0 mi WSW 5.8 mph - N/A   Mostly Cloudy
6:35 AM 32.0 °F - 21.2 °F 64% 30.03 in 10.0 mi Calm Calm - N/A   Overcast
6:55 AM 32.0 °F 27.5 °F 21.2 °F 64% 30.05 in 10.0 mi WSW 4.6 mph - N/A   Overcast
7:15 AM 32.0 °F 27.5 °F 21.2 °F 64% 30.04 in 10.0 mi West 4.6 mph - N/A   Mostly Cloudy
7:35 AM 32.0 °F 27.5 °F 21.2 °F 64% 30.06 in 10.0 mi WSW 4.6 mph - N/A   Mostly Cloudy
7:55 AM 32.0 °F 28.7 °F 21.2 °F 64% 30.06 in 10.0 mi West 3.5 mph - N/A   Overcast
8:15 AM 32.0 °F 28.7 °F 21.2 °F 64% 30.06 in 10.0 mi WNW 3.5 mph - N/A   Overcast
8:35 AM 32.0 °F 28.7 °F 21.2 °F 64% 30.07 in 10.0 mi SW 3.5 mph - N/A   Overcast
8:55 AM 32.0 °F - 21.2 °F 64% 30.06 in 10.0 mi Calm Calm - N/A   Overcast
9:15 AM 32.0 °F - 19.4 °F 60% 30.07 in 10.0 mi Calm Calm - N/A   Overcast
9:55 AM 32.0 °F - 21.2 °F 64% 30.08 in 10.0 mi Calm Calm - N/A   Light Drizzle
10:15 AM 32.0 °F - 23.0 °F 69% 30.05 in 10.0 mi Calm Calm - N/A   Light Drizzle
10:35 AM 32.0 °F 28.7 °F 24.8 °F 75% 30.07 in 10.0 mi South 3.5 mph - N/A   Overcast
10:55 AM 32.0 °F - 23.0 °F 69% 30.06 in 10.0 mi Calm Calm - N/A Rain Light Rain
11:15 AM 32.0 °F 28.7 °F 26.6 °F 80% 30.04 in 10.0 mi ESE 3.5 mph - N/A Snow Light Snow
11:35 AM 32.0 °F - 26.6 °F 80% 30.04 in 7.0 mi Calm Calm - N/A   Overcast
11:55 AM 30.2 °F - 26.6 °F 86% 30.05 in 7.0 mi Calm Calm - 0.01 in   Overcast
12:15 PM 30.2 °F - 26.6 °F 86% 30.04 in 10.0 mi Calm Calm - N/A Snow Light Snow
12:35 PM 30.2 °F - 26.6 °F 86% 30.02 in 10.0 mi Calm Calm - N/A   Overcast
12:55 PM 30.2 °F - 26.6 °F 86% 30.02 in 10.0 mi Calm Calm - N/A   Overcast
1:15 PM 30.2 °F 26.7 °F 26.6 °F 86% 30.00 in 10.0 mi South 3.5 mph - N/A   Overcast
1:35 PM 30.2 °F 26.7 °F 26.6 °F 86% 30.00 in 10.0 mi SSW 3.5 mph - N/A   Overcast
1:55 PM 30.2 °F 26.7 °F 28.4 °F 93% 29.99 in 10.0 mi South 3.5 mph - N/A   Overcast
2:15 PM 30.2 °F 26.7 °F 28.4 °F 93% 30.03 in 10.0 mi SSW 3.5 mph - N/A Snow Light Snow
2:35 PM 30.2 °F 25.4 °F 26.6 °F 86% 30.01 in 2.5 mi SSW 4.6 mph - N/A Snow Light Snow
2:55 PM 28.4 °F - 26.6 °F 93% 30.01 in 0.8 mi Calm Calm - N/A Snow Snow
3:15 PM 28.4 °F 24.6 °F 28.4 °F 100% 30.02 in 0.2 mi SSE 3.5 mph - 0.01 in Snow Snow
3:35 PM 28.4 °F - 28.4 °F 100% 30.03 in 0.5 mi Calm Calm - 0.04 in Snow Snow
3:55 PM 28.4 °F 22.2 °F 28.4 °F 100% 30.06 in 0.5 mi West 5.8 mph - 0.06 in Snow Snow
4:15 PM 28.4 °F - 28.4 °F 100% 30.05 in 1.2 mi Calm Calm - 0.01 in Snow Light Snow
4:55 PM 28.4 °F - 28.4 °F 100% 30.05 in 1.0 mi Calm Calm - 0.04 in Snow Snow
5:55 PM 28.4 °F 22.2 °F 28.4 °F 100% 30.07 in 4.0 mi WNW 5.8 mph - 0.03 in Snow Light Snow
6:15 PM 28.4 °F 24.6 °F 28.4 °F 100% 30.07 in 10.0 mi NNW 3.5 mph - N/A   Overcast
6:35 PM 28.4 °F - 28.4 °F 100% 30.04 in 7.0 mi Calm Calm - N/A   Overcast
6:55 PM 28.4 °F - 28.4 °F 100% 30.07 in 10.0 mi Calm Calm - N/A   Overcast
7:35 PM 28.4 °F - 28.4 °F 100% 30.05 in 10.0 mi Calm Calm - N/A   Overcast
8:15 PM 28.4 °F - 26.6 °F 93% 30.06 in 10.0 mi Calm Calm - N/A   Overcast
8:35 PM 30.2 °F 25.4 °F 26.6 °F 86% 30.06 in 10.0 mi North 4.6 mph - N/A   Overcast
8:55 PM 30.2 °F 26.7 °F 24.8 °F 80% 30.06 in 10.0 mi North 3.5 mph - N/A   Overcast
9:15 PM 30.2 °F 25.4 °F 24.8 °F 80% 30.09 in 10.0 mi NW 4.6 mph - N/A   Mostly Cloudy
9:35 PM 30.2 °F 26.7 °F 23.0 °F 75% 30.06 in 10.0 mi NNW 3.5 mph - N/A   Scattered Clouds
9:55 PM 30.2 °F 24.3 °F 23.0 °F 75% 30.05 in 10.0 mi North 5.8 mph - N/A   Clear
10:15 PM 30.2 °F 26.7 °F 23.0 °F 75% 30.09 in 10.0 mi NW 3.5 mph - N/A   Clear
10:55 PM 28.4 °F - 21.2 °F 74% 30.13 in 10.0 mi Calm Calm - N/A   Clear